WMT2YZ LRTM-EDJA

Flight info

Callsign WMT2YZ
Flight time 1h 35m
Altitude 10000
Route ELROM DCT ATSOS Z941 NARKA/N0433F380 DCT ABETI DCT LIMRA DCT SBG DCT TRAUN/N0293F120 L856 KPT
Aircraft A20N/M-SDE1E2E3FGIJ1J4RWXY/LB1

Departure

Time 2026-05-07 15:03
Airport Târgu Mureş Transilvania International Airport (LRTM)

Arrival

Time 2026-05-07 16:39
Airport Memmingen Allgau Airport (EDJA)
Time Latitude Longitude Altitude Speed Heading
2026-05-07 14:40 46.46788 24.42384 971 ft 0 kts 291°
2026-05-07 15:00 46.46789 24.42383 970 ft 0 kts 292°
2026-05-07 15:00 46.46791 24.42379 970 ft 0 kts 298°
2026-05-07 15:00 46.46803 24.42362 970 ft 3 kts 330°
2026-05-07 15:01 46.46826 24.42366 970 ft 4 kts 37°
2026-05-07 15:01 46.46843 24.42414 970 ft 6 kts 72°
2026-05-07 15:01 46.46858 24.42484 970 ft 8 kts 71°
2026-05-07 15:01 46.46897 24.42534 970 ft 9 kts 355°
2026-05-07 15:02 46.46961 24.42509 970 ft 10 kts 343°
2026-05-07 15:02 46.47006 24.42463 970 ft 8 kts 277°
2026-05-07 15:02 46.47002 24.42434 970 ft 0 kts 255°
2026-05-07 15:02 46.47002 24.42431 970 ft 0 kts 255°
2026-05-07 15:03 46.46968 24.42254 970 ft 53 kts 253°
2026-05-07 15:03 46.46794 24.41361 966 ft 127 kts 254°
2026-05-07 15:03 46.46522 24.39921 1275 ft 157 kts 254°
2026-05-07 15:03 46.46247 24.38424 2070 ft 156 kts 254°
2026-05-07 15:04 46.45947 24.36888 2720 ft 167 kts 253°
2026-05-07 15:04 46.45600 24.35208 3284 ft 184 kts 254°
2026-05-07 15:04 46.45227 24.33354 3826 ft 204 kts 253°
2026-05-07 15:04 46.44822 24.31288 4531 ft 218 kts 256°
2026-05-07 15:05 46.44825 24.29134 5459 ft 225 kts 286°
2026-05-07 15:05 46.45495 24.27078 6293 ft 235 kts 295°
2026-05-07 15:05 46.46334 24.24942 6921 ft 253 kts 296°
2026-05-07 15:05 46.47213 24.22652 7532 ft 271 kts 295°
2026-05-07 15:06 46.48120 24.20177 8233 ft 284 kts 294°
2026-05-07 15:06 46.49024 24.17632 9183 ft 288 kts 294°
2026-05-07 15:06 46.49923 24.15058 10131 ft 291 kts 293°
2026-05-07 15:06 46.50834 24.12415 10914 ft 299 kts 293°
2026-05-07 15:07 46.51767 24.09679 11615 ft 309 kts 293°
2026-05-07 15:07 46.52723 24.06873 12470 ft 313 kts 293°
2026-05-07 15:07 46.53691 24.04025 13346 ft 315 kts 294°
2026-05-07 15:07 46.54651 24.01193 14168 ft 319 kts 293°
2026-05-07 15:08 46.55631 23.98301 14990 ft 322 kts 293°
2026-05-07 15:08 46.56624 23.95366 15776 ft 326 kts 293°
2026-05-07 15:08 46.57630 23.92389 16542 ft 330 kts 293°
2026-05-07 15:08 46.58653 23.89352 17289 ft 334 kts 293°
2026-05-07 15:09 46.59676 23.86310 18006 ft 338 kts 293°
2026-05-07 15:09 46.60709 23.83231 18701 ft 342 kts 293°
2026-05-07 15:09 46.61749 23.80133 19398 ft 345 kts 294°
2026-05-07 15:09 46.62814 23.76968 20103 ft 349 kts 294°
2026-05-07 15:10 46.63880 23.73802 20799 ft 351 kts 294°
2026-05-07 15:10 46.64955 23.70605 21497 ft 354 kts 294°
2026-05-07 15:10 46.66042 23.67367 22167 ft 357 kts 294°
2026-05-07 15:10 46.67135 23.64108 22834 ft 360 kts 294°
2026-05-07 15:11 46.68232 23.60826 23488 ft 363 kts 294°
2026-05-07 15:11 46.69341 23.57510 24149 ft 366 kts 294°
2026-05-07 15:11 46.70459 23.54160 24786 ft 369 kts 294°
2026-05-07 15:11 46.71570 23.50829 25417 ft 371 kts 293°
2026-05-07 15:12 46.72712 23.47395 26029 ft 374 kts 294°
2026-05-07 15:12 46.73847 23.43979 26605 ft 376 kts 294°
2026-05-07 15:12 46.74985 23.40552 27166 ft 379 kts 293°
2026-05-07 15:12 46.76141 23.37071 27715 ft 382 kts 293°
2026-05-07 15:13 46.77290 23.33602 28235 ft 384 kts 292°
2026-05-07 15:13 46.78469 23.30035 28753 ft 386 kts 292°
2026-05-07 15:13 46.79635 23.26505 29251 ft 388 kts 292°
2026-05-07 15:13 46.80822 23.22903 29712 ft 391 kts 292°
2026-05-07 15:14 46.81988 23.19357 30142 ft 394 kts 292°
2026-05-07 15:14 46.83180 23.15733 30591 ft 396 kts 292°
2026-05-07 15:14 46.84375 23.12093 31020 ft 398 kts 292°
2026-05-07 15:14 46.85587 23.08396 31409 ft 400 kts 292°
2026-05-07 15:15 46.86794 23.04714 31784 ft 403 kts 292°
2026-05-07 15:15 46.88002 23.01015 32132 ft 405 kts 292°
2026-05-07 15:15 46.89223 22.97275 32485 ft 407 kts 292°
2026-05-07 15:15 46.90445 22.93532 32839 ft 409 kts 291°
2026-05-07 15:16 46.91672 22.89758 33256 ft 408 kts 291°
2026-05-07 15:16 46.92903 22.85975 33718 ft 407 kts 291°
2026-05-07 15:16 46.94110 22.82258 34171 ft 405 kts 291°
2026-05-07 15:16 46.95313 22.78543 34589 ft 405 kts 291°
2026-05-07 15:17 46.96512 22.74834 34941 ft 404 kts 291°
2026-05-07 15:17 46.97712 22.71117 35263 ft 403 kts 291°
2026-05-07 15:17 46.98913 22.67395 35552 ft 403 kts 291°
2026-05-07 15:17 47.00109 22.63687 35820 ft 403 kts 291°
2026-05-07 15:18 47.01316 22.59943 36099 ft 403 kts 291°
2026-05-07 15:18 47.02510 22.56229 36348 ft 403 kts 291°
2026-05-07 15:18 47.03723 22.52447 36562 ft 404 kts 291°
2026-05-07 15:18 47.04920 22.48712 36811 ft 405 kts 291°
2026-05-07 15:19 47.06110 22.44991 37058 ft 406 kts 291°
2026-05-07 15:19 47.07314 22.41218 37297 ft 408 kts 291°
2026-05-07 15:19 47.08524 22.37421 37535 ft 409 kts 291°
2026-05-07 15:19 47.09719 22.33666 37743 ft 411 kts 290°
2026-05-07 15:20 47.10935 22.29841 37965 ft 412 kts 290°
2026-05-07 15:20 47.12147 22.26019 38031 ft 413 kts 290°
2026-05-07 15:20 47.14574 22.18363 38032 ft 414 kts 290°
2026-05-07 15:21 47.16998 22.10687 38037 ft 414 kts 290°
2026-05-07 15:21 47.19426 22.03000 38032 ft 414 kts 291°
2026-05-07 15:22 47.21868 21.95334 38024 ft 414 kts 290°
2026-05-07 15:22 47.23995 21.87477 38021 ft 411 kts 284°
2026-05-07 15:23 47.25485 21.79401 38016 ft 408 kts 278°
2026-05-07 15:23 47.26448 21.71226 38012 ft 407 kts 275°
2026-05-07 15:24 47.27334 21.63043 38009 ft 406 kts 275°
2026-05-07 15:24 47.28216 21.54853 38004 ft 406 kts 275°
2026-05-07 15:25 47.29100 21.46598 38002 ft 405 kts 275°
2026-05-07 15:25 47.29972 21.38415 37996 ft 405 kts 276°
2026-05-07 15:26 47.30838 21.30233 37997 ft 405 kts 275°
2026-05-07 15:26 47.31696 21.22067 37990 ft 405 kts 275°
2026-05-07 15:27 47.32557 21.13813 37990 ft 405 kts 275°
2026-05-07 15:27 47.33404 21.05645 37991 ft 404 kts 275°
2026-05-07 15:28 47.34248 20.97430 37989 ft 404 kts 275°
2026-05-07 15:28 47.35083 20.89254 37986 ft 403 kts 274°
2026-05-07 15:29 47.35917 20.81020 37986 ft 403 kts 275°
2026-05-07 15:29 47.36742 20.72819 37986 ft 403 kts 274°
2026-05-07 15:30 47.37562 20.64614 37987 ft 403 kts 274°
2026-05-07 15:30 47.38374 20.56415 37988 ft 404 kts 274°
2026-05-07 15:31 47.39182 20.48211 37987 ft 403 kts 274°
2026-05-07 15:31 47.39983 20.40007 37984 ft 403 kts 274°
2026-05-07 15:32 47.40780 20.31770 37985 ft 402 kts 274°
2026-05-07 15:32 47.41568 20.23578 37983 ft 402 kts 273°
2026-05-07 15:33 47.42351 20.15371 37993 ft 401 kts 273°
2026-05-07 15:33 47.43122 20.07220 37983 ft 401 kts 273°
2026-05-07 15:34 47.43893 19.99024 37988 ft 402 kts 273°
2026-05-07 15:34 47.44656 19.90826 37978 ft 402 kts 273°
2026-05-07 15:35 47.45417 19.82586 37983 ft 402 kts 273°
2026-05-07 15:35 47.46166 19.74415 37986 ft 402 kts 273°
2026-05-07 15:36 47.46914 19.66198 37972 ft 401 kts 273°
2026-05-07 15:36 47.47648 19.58055 37974 ft 401 kts 273°
2026-05-07 15:37 47.48377 19.49899 37948 ft 401 kts 273°
2026-05-07 15:37 47.49106 19.41698 37983 ft 401 kts 273°
2026-05-07 15:38 47.49824 19.33545 37974 ft 401 kts 272°
2026-05-07 15:38 47.50538 19.25365 37975 ft 401 kts 272°
2026-05-07 15:39 47.51245 19.17186 37968 ft 401 kts 272°
2026-05-07 15:39 47.51946 19.09008 37995 ft 401 kts 272°
2026-05-07 15:40 47.52642 19.00826 37985 ft 402 kts 272°
2026-05-07 15:40 47.53339 18.92562 37961 ft 402 kts 272°
2026-05-07 15:41 47.54024 18.84368 37982 ft 401 kts 273°
2026-05-07 15:41 47.54707 18.76139 37968 ft 401 kts 272°
2026-05-07 15:42 47.55384 18.67899 37966 ft 402 kts 272°
2026-05-07 15:42 47.56050 18.59712 37959 ft 402 kts 272°
2026-05-07 15:43 47.56715 18.51477 37947 ft 402 kts 272°
2026-05-07 15:43 47.57373 18.43229 37959 ft 403 kts 272°
2026-05-07 15:44 47.58022 18.35035 37960 ft 403 kts 272°
2026-05-07 15:44 47.58675 18.26716 37927 ft 403 kts 271°
2026-05-07 15:45 47.59318 18.18436 37941 ft 402 kts 272°
2026-05-07 15:45 47.59949 18.10236 37951 ft 403 kts 272°
2026-05-07 15:46 47.60894 17.97818 37957 ft 404 kts 272°
2026-05-07 15:47 47.61517 17.89517 37957 ft 404 kts 272°
2026-05-07 15:47 47.62136 17.81198 37958 ft 404 kts 272°
2026-05-07 15:48 47.62747 17.72905 37961 ft 404 kts 272°
2026-05-07 15:48 47.63351 17.64615 37967 ft 404 kts 272°
2026-05-07 15:49 47.63947 17.56355 37966 ft 405 kts 272°
2026-05-07 15:49 47.64543 17.48000 37945 ft 405 kts 272°
2026-05-07 15:50 47.65130 17.39716 37940 ft 405 kts 272°
2026-05-07 15:50 47.65713 17.31352 37961 ft 404 kts 271°
2026-05-07 15:51 47.66289 17.23062 37936 ft 404 kts 271°
2026-05-07 15:51 47.66857 17.14734 37942 ft 404 kts 271°
2026-05-07 15:52 47.67416 17.06461 37955 ft 404 kts 271°
2026-05-07 15:52 47.68087 16.98132 37999 ft 405 kts 274°
2026-05-07 15:53 47.68927 16.89893 37964 ft 405 kts 274°
2026-05-07 15:53 47.69768 16.81606 37957 ft 405 kts 274°
2026-05-07 15:54 47.70599 16.73327 37957 ft 405 kts 274°
2026-05-07 15:54 47.71427 16.65016 37948 ft 406 kts 275°
2026-05-07 15:55 47.72252 16.56671 37948 ft 406 kts 275°
2026-05-07 15:55 47.73067 16.48379 37946 ft 406 kts 274°
2026-05-07 15:56 47.73878 16.40036 37958 ft 406 kts 274°
2026-05-07 15:56 47.74681 16.31711 37952 ft 405 kts 274°
2026-05-07 15:57 47.75478 16.23407 37948 ft 405 kts 274°
2026-05-07 15:57 47.76271 16.15059 37953 ft 405 kts 274°
2026-05-07 15:58 47.77055 16.06755 37956 ft 406 kts 274°
2026-05-07 15:58 47.77834 15.98441 37949 ft 405 kts 274°
2026-05-07 15:59 47.78611 15.90065 37960 ft 406 kts 274°
2026-05-07 15:59 47.79377 15.81746 37946 ft 407 kts 274°
2026-05-07 16:00 47.80146 15.73329 37946 ft 407 kts 274°
2026-05-07 16:00 47.80903 15.64969 37953 ft 407 kts 274°
2026-05-07 16:01 47.81655 15.56592 37964 ft 407 kts 274°
2026-05-07 16:01 47.82403 15.48188 37969 ft 407 kts 275°
2026-05-07 16:02 47.83141 15.39826 37971 ft 408 kts 275°
2026-05-07 16:02 47.83879 15.31406 37973 ft 408 kts 274°
2026-05-07 16:03 47.84604 15.23047 37962 ft 408 kts 274°
2026-05-07 16:03 47.85330 15.14613 37964 ft 409 kts 274°
2026-05-07 16:04 47.86049 15.06177 37980 ft 409 kts 274°
2026-05-07 16:04 47.86759 14.97792 37967 ft 409 kts 274°
2026-05-07 16:05 47.87467 14.89343 37979 ft 409 kts 274°
2026-05-07 16:05 47.88164 14.80937 37983 ft 408 kts 274°
2026-05-07 16:06 47.88855 14.72539 37983 ft 409 kts 274°
2026-05-07 16:06 47.89542 14.64112 37978 ft 409 kts 274°
2026-05-07 16:07 47.90223 14.55663 37990 ft 409 kts 274°
2026-05-07 16:07 47.90893 14.47270 37993 ft 409 kts 274°
2026-05-07 16:08 47.91504 14.38818 37993 ft 409 kts 273°
2026-05-07 16:08 47.92043 14.30376 37996 ft 409 kts 272°
2026-05-07 16:09 47.92585 14.21837 38000 ft 409 kts 272°
2026-05-07 16:09 47.93116 14.13416 38005 ft 409 kts 272°
2026-05-07 16:10 47.93646 14.04919 38005 ft 409 kts 272°
2026-05-07 16:10 47.94169 13.96463 38001 ft 409 kts 272°
2026-05-07 16:11 47.94687 13.87972 38009 ft 409 kts 272°
2026-05-07 16:11 47.95197 13.79535 38007 ft 409 kts 272°
2026-05-07 16:12 47.95705 13.71017 38007 ft 409 kts 272°
2026-05-07 16:12 47.96203 13.62545 38004 ft 408 kts 272°
2026-05-07 16:13 47.96697 13.54049 38007 ft 409 kts 273°
2026-05-07 16:13 47.97184 13.45549 38001 ft 410 kts 273°
2026-05-07 16:14 47.97666 13.37022 38003 ft 410 kts 273°
2026-05-07 16:14 47.98139 13.28549 38004 ft 410 kts 272°
2026-05-07 16:15 47.98609 13.20039 38005 ft 411 kts 272°
2026-05-07 16:15 47.99071 13.11537 38007 ft 411 kts 272°
2026-05-07 16:16 47.99531 13.02947 38009 ft 411 kts 272°
2026-05-07 16:16 47.99939 12.94417 38008 ft 411 kts 270°
2026-05-07 16:17 47.99834 12.85875 38013 ft 410 kts 264°
2026-05-07 16:17 47.99169 12.77448 38019 ft 410 kts 261°
2026-05-07 16:18 47.98399 12.68963 38023 ft 410 kts 261°
2026-05-07 16:18 47.97622 12.60505 38026 ft 410 kts 261°
2026-05-07 16:19 47.96845 12.52049 38028 ft 410 kts 261°
2026-05-07 16:19 47.96065 12.43620 38028 ft 409 kts 261°
2026-05-07 16:19 47.95671 12.39390 37905 ft 410 kts 262°
2026-05-07 16:20 47.95276 12.35166 37689 ft 408 kts 262°
2026-05-07 16:20 47.94883 12.30980 37480 ft 405 kts 261°
2026-05-07 16:20 47.94491 12.26833 37272 ft 403 kts 261°
2026-05-07 16:20 47.94103 12.22737 37054 ft 400 kts 261°
2026-05-07 16:21 47.93717 12.18678 36845 ft 398 kts 261°
2026-05-07 16:21 47.93324 12.14594 36602 ft 397 kts 261°
2026-05-07 16:21 47.92928 12.10508 36244 ft 398 kts 261°
2026-05-07 16:21 47.92531 12.06428 35731 ft 400 kts 261°
2026-05-07 16:22 47.92127 12.02292 35131 ft 402 kts 261°
2026-05-07 16:22 47.91722 11.98167 34512 ft 405 kts 261°
2026-05-07 16:22 47.91313 11.94008 33912 ft 408 kts 261°
2026-05-07 16:22 47.90894 11.89776 33286 ft 413 kts 262°
2026-05-07 16:23 47.90470 11.85526 32615 ft 417 kts 262°
2026-05-07 16:23 47.90048 11.81303 32106 ft 407 kts 262°
2026-05-07 16:23 47.89639 11.77196 31618 ft 401 kts 262°
2026-05-07 16:23 47.89230 11.73071 31084 ft 400 kts 263°
2026-05-07 16:24 47.88826 11.69000 30482 ft 397 kts 263°
2026-05-07 16:24 47.88423 11.64945 29949 ft 393 kts 263°
2026-05-07 16:24 47.88021 11.60926 29462 ft 389 kts 263°
2026-05-07 16:24 47.87623 11.56960 28987 ft 385 kts 263°
2026-05-07 16:25 47.87227 11.53038 28514 ft 381 kts 263°
2026-05-07 16:25 47.86903 11.49142 28029 ft 376 kts 270°
2026-05-07 16:25 47.87241 11.45325 27523 ft 371 kts 288°
2026-05-07 16:25 47.88161 11.41736 27045 ft 366 kts 293°
2026-05-07 16:26 47.89185 11.38279 26281 ft 366 kts 294°
2026-05-07 16:26 47.90228 11.34836 25456 ft 360 kts 294°
2026-05-07 16:26 47.91253 11.31455 24610 ft 353 kts 294°
2026-05-07 16:26 47.91919 11.29256 24059 ft 349 kts 294°
2026-05-07 16:27 47.93251 11.24866 22920 ft 344 kts 294°
2026-05-07 16:27 47.94228 11.21670 22037 ft 341 kts 294°
2026-05-07 16:27 47.95206 11.18499 21086 ft 338 kts 294°
2026-05-07 16:27 47.96197 11.15319 20138 ft 336 kts 294°
2026-05-07 16:28 47.97176 11.12210 19210 ft 333 kts 294°
2026-05-07 16:28 47.98164 11.09105 18286 ft 330 kts 294°
2026-05-07 16:28 47.99149 11.06032 17385 ft 325 kts 294°
2026-05-07 16:28 48.00104 11.03057 16503 ft 320 kts 294°
2026-05-07 16:29 48.01055 11.00081 15592 ft 316 kts 294°
2026-05-07 16:29 48.02005 10.97096 14566 ft 316 kts 294°
2026-05-07 16:29 48.02933 10.94165 13560 ft 314 kts 294°
2026-05-07 16:29 48.03860 10.91235 12552 ft 312 kts 294°
2026-05-07 16:30 48.04777 10.88334 11549 ft 310 kts 294°
2026-05-07 16:30 48.05693 10.85441 10684 ft 302 kts 294°
2026-05-07 16:30 48.06580 10.82656 10054 ft 289 kts 294°
2026-05-07 16:30 48.07427 10.80015 9433 ft 279 kts 294°
2026-05-07 16:31 48.08258 10.77426 8801 ft 270 kts 294°
2026-05-07 16:31 48.09045 10.74965 8184 ft 263 kts 294°
2026-05-07 16:31 48.09826 10.72497 7566 ft 265 kts 294°
2026-05-07 16:31 48.10613 10.69983 6937 ft 261 kts 294°
2026-05-07 16:32 48.11356 10.67582 6678 ft 246 kts 294°
2026-05-07 16:32 48.12066 10.65280 6530 ft 235 kts 294°
2026-05-07 16:32 48.12577 10.63039 6377 ft 224 kts 274°
2026-05-07 16:32 48.12407 10.60764 6270 ft 215 kts 258°
2026-05-07 16:33 48.11995 10.58594 6171 ft 215 kts 254°
2026-05-07 16:33 48.11506 10.56486 6087 ft 214 kts 249°
2026-05-07 16:33 48.10872 10.54445 5982 ft 214 kts 245°
2026-05-07 16:33 48.10181 10.52451 5873 ft 215 kts 243°
2026-05-07 16:34 48.09449 10.50491 5765 ft 216 kts 242°
2026-05-07 16:34 48.08695 10.48561 5516 ft 216 kts 242°
2026-05-07 16:34 48.07924 10.46628 5228 ft 215 kts 241°
2026-05-07 16:34 48.07161 10.44727 4953 ft 206 kts 241°
2026-05-07 16:35 48.06450 10.42959 4771 ft 194 kts 242°
2026-05-07 16:35 48.05768 10.41256 4475 ft 184 kts 242°
2026-05-07 16:35 48.05130 10.39659 4212 ft 178 kts 242°
2026-05-07 16:35 48.04515 10.38117 3985 ft 166 kts 242°
2026-05-07 16:36 48.03941 10.36680 3756 ft 153 kts 242°
2026-05-07 16:36 48.03419 10.35374 3538 ft 140 kts 243°
2026-05-07 16:36 48.02931 10.34145 3366 ft 138 kts 242°
2026-05-07 16:36 48.02434 10.32894 3204 ft 137 kts 242°
2026-05-07 16:37 48.01935 10.31642 3028 ft 137 kts 242°
2026-05-07 16:37 48.01443 10.30411 2849 ft 136 kts 242°
2026-05-07 16:37 48.00954 10.29179 2667 ft 136 kts 242°
2026-05-07 16:37 48.00468 10.27958 2483 ft 136 kts 242°
2026-05-07 16:38 47.99981 10.26743 2302 ft 135 kts 242°
2026-05-07 16:38 47.99506 10.25538 2124 ft 134 kts 243°
2026-05-07 16:38 47.99056 10.24383 2071 ft 111 kts 240°
2026-05-07 16:38 47.98751 10.23622 2070 ft 63 kts 240°
2026-05-07 16:39 47.98550 10.23114 2071 ft 50 kts 239°
2026-05-07 16:39 47.98419 10.22783 2071 ft 26 kts 239°
2026-05-07 16:39 47.98357 10.22605 2071 ft 10 kts 275°
2026-05-07 16:39 47.98413 10.22540 2071 ft 10 kts 359°
2026-05-07 16:40 47.98465 10.22620 2070 ft 11 kts 59°
2026-05-07 16:40 47.98504 10.22691 2071 ft 7 kts 36°
2026-05-07 16:40 47.98555 10.22713 2070 ft 7 kts
2026-05-07 16:40 47.98613 10.22714 2071 ft 9 kts 360°
2026-05-07 16:41 47.98675 10.22716 2071 ft 7 kts 17°
2026-05-07 16:41 47.98698 10.22786 2070 ft 8 kts 78°
2026-05-07 16:41 47.98711 10.22880 2070 ft 9 kts 76°
2026-05-07 16:41 47.98749 10.22968 2070 ft 10 kts 60°
2026-05-07 16:42 47.98779 10.23079 2070 ft 11 kts 70°
2026-05-07 16:42 47.98807 10.23194 2070 ft 3 kts 70°
2026-05-07 16:42 47.98813 10.23213 2070 ft 2 kts 58°
2026-05-07 16:42 47.98824 10.23226 2070 ft 1 kts 18°
2026-05-07 16:43 47.98835 10.23223 2070 ft 1 kts 338°
2026-05-07 16:43 47.98845 10.23216 2070 ft 1 kts 329°
2026-05-07 16:43 47.98855 10.23212 2070 ft 1 kts
2026-05-07 16:43 47.98863 10.23224 2070 ft 2 kts 50°
2026-05-07 16:44 47.98872 10.23241 2070 ft 2 kts 54°
2026-05-07 16:44 47.98872 10.23242 2070 ft 0 kts 54°